DECAYED

COSMOS 2251 DEB, 34886 (Decayed)

Orbit data source: Space-Track

COSMOS 2251 DEB, 34886 was space debris in LEO originally from a launch on Wed, 16 Jun 1993 UTC launched from the Plesetsk Missile And Space Complex (PKMTR). The debris from Iridium 33, an American commercial communications satellite, has been tracked extensively since its accidental collision with the defunct Russian satellite Cosmos 2251 in 2009. This event, occurring at high speed in low Earth orbit (LEO), generated thousands of pieces of space debris, significantly increasing the risk of further collisions. The Iridium 33 debris cloud has impacted space traffic management and orbital debris mitigation strategies, making it a subject of ongoing study in space situational awareness.

Not visible in the next 10 days
Identifier
34886, 1993-036ACZ
Orbit
Decayed
Country
Flag of CISCIS
Related business
Manufacturer
Unknown
Mission
Decayed spacecraft
Bus & Motor
Unknown
Mass
Unknown
Launch date (UTC)
1993-06-16 (33 years ago)
Launch vehicle
Unknown
Launch site
Plesetsk Missile And Space Complex (PKMTR)
Object type
Payload
Rocket body
Debris
Shape & HBR
Unknown shape, 0.1 m
Radar Cross Section
Small (<0.1 m²)

Expand to show TLE details & history
Last TLE update: 5 months ago

TLE from 5 months ago
0 COSMOS 2251 DEB
1 34886U 93036ACZ 26093.27091863  .00769481  00000-0  40813-2 0  9999
2 34886  73.9390 294.0391 0012159 112.1913 248.0606 15.78322838647297
Epoch: 2026-04-03T06:30Z
TLE epoch observation values (Epoch: 2026-04-03T06:30:07.369Z)
Latitude
-0.00001°
Longitude
4.90095°
Altitude
341.026 km
Speed
7.703 km/s
True Right ascension
19h 36m 09s
True Declination
0° 00' 00"
Sunlit
Object was in daylight at epoch
Visualization orbit readout
Latitude
Unknown
Longitude
Unknown
Altitude
Unknown
Speed
Unknown
Apparent Right ascension
Unknown
Apparent Declination
Unknown
Sunlit
N/A
Visualization observer readout
Local Sidereal Time
03:55:23
Azimuth
Unknown
Elevation
Unknown
Doppler factor
Unknown
Orbital elements
Apogee altitude
340.83 km
Perigee altitude
324.51 km
Semi-major axis
6,710.807 km
Eccentricity
0.00122
Inclination
73.939°
RAAN
294.0391°
Arg. of periapsis
112.1913°
True anomaly
247.93143°
Mean anomaly
248.0606°
Eccentric anomaly
247.99601°
Mean motion
3.94804 °/min
Orbital period
91.18 mins
BSTAR
0.0040813
Loading maneuver chart data...
Computing Atmospheric mass density...

Documentation

Showing up to 5 results
|